Location: Recife
(8.0585°S, 34.8848°W)
Time: 10:25:21
(UTC-03:00)

Transit 2A - Pass Details

Date: 22 April 2026
Orbit: 594 x 950 km, 66.7° (Epoch: 19 May)

Event Time Altitude Azimuth Distance (km) Brightness Sun altitude
Rises 17:23:50 0° 169° (SSE) 3,431 9.1 -3.1°
Reaches altitude 10° 17:27:27 10° 146° (SE) 2,555 8.3 -4.0°
Maximum altitude 17:30:44 15° 112° (ESE) 2,255 7.8 -4.8°
Drops below altitude 10° 17:34:05 10° 79° (E) 2,633 8.2 -5.6°
Sets 17:37:51 0° 57° (ENE) 3,599 9.0 -6.5°
